Printer-friendly version

IAU Minor Planet Center

Minor Planet Center

MPEC 2005-G41 : 2005 GM22

The following Minor Planet Electronic Circular may be linked-to from your own Web pages, but must not otherwise be redistributed electronically.


Read MPEC 2005-G40 Read MPEC 2005-G42


M.P.E.C. 2005-G41                                Issued 2005 Apr. 6, 18:25 UT

     The Minor Planet Electronic Circulars contain information on unusual
         minor planets and routine data on comets.  They are published
   on behalf of Commission 20 of the International Astronomical Union by the
          Minor Planet Center, Smithsonian Astrophysical Observatory,
                          Cambridge, MA 02138, U.S.A.

                  Supported in part by the Brinson Foundation
             Prepared using the Tamkin Foundation Computer Network

                              MPC@CFA.HARVARD.EDU
          URL http://cfa-www.harvard.edu/iau/mpc.html  ISSN 1523-6714

                                   2005 GM22

Observations:
     K05G22M* C2005 04 04.34934 12 25 26.22 -03 28 12.9          18.8   EG041704
     K05G22M  C2005 04 04.35945 12 25 31.46 -03 26 09.2          18.8   EG041704
     K05G22M  C2005 04 04.37005 12 25 37.06 -03 23 59.3          19.3   EG041704
     K05G22M  C2005 04 04.38016 12 25 42.39 -03 21 54.7          18.7   EG041704
     K05G22M HC2005 04 04.94477 12 30 51.43 -01 28 35.8                 EG041246
     K05G22M HC2005 04 04.94542 12 30 51.74 -01 28 31.8                 EG041246
     K05G22M  C2005 04 05.23377 12 33 26.62 -00 31 24.9          18.4 R EG041699
     K05G22M  C2005 04 05.25003 12 33 34.66 -00 28 13.6                 EG041699
     K05G22M  C2005 04 05.26628 12 33 42.82 -00 25 03.2                 EG041699
     K05G22M  C2005 04 05.28110 12 33 49.74 -00 22 08.5          18.6   EG041704
     K05G22M  C2005 04 05.28120 12 33 49.83 -00 22 08.6          18.5   EG041704
     K05G22M  C2005 04 05.28252 12 33 50.84 -00 21 53.0                 EG041699
     K05G22M  C2005 04 05.29247 12 33 55.40 -00 19 54.9          18.9   EG041704
     K05G22M  C2005 04 05.29257 12 33 55.44 -00 19 53.6          19.1   EG041704
     K05G22M  C2005 04 05.30441 12 34 01.32 -00 17 35.6          18.9   EG041704
     K05G22M  C2005 04 05.30451 12 34 01.40 -00 17 35.5          19.0   EG041704
     K05G22M  C2005 04 05.31506 12 34 06.63 -00 15 31.4          19.0   EG041704
     K05G22M  C2005 04 05.31515 12 34 06.64 -00 15 30.2          19.2   EG041704
     K05G22M  C2005 04 05.32555 12 34 11.74 -00 13 28.3          19.1   EG041704
     K05G22M  C2005 04 05.32565 12 34 11.77 -00 13 27.6          19.0   EG041704
     K05G22M  C2005 04 06.19591 12 41 41.85 +02 31 47.9          19.2 R EG041651
     K05G22M  C2005 04 06.19742 12 41 42.59 +02 32 04.0          19.2 R EG041651
     K05G22M  C2005 04 06.19834 12 41 43.05 +02 32 14.7          19.0 R EG041651
     K05G22M  C2005 04 06.29853 12 42 27.18 +02 52 07.9          18.4 R EG041I04
     K05G22M  C2005 04 06.29902 12 42 27.41 +02 52 13.3          18.3 R EG041I04
     K05G22M  C2005 04 06.30003 12 42 27.81 +02 52 24.5          18.2 R EG041I04
     K05G22M  C2005 04 06.30781 12 42 31.58 +02 53 49.9          18.7 R EG041I04
     K05G22M  C2005 04 06.35564 12 42 56.97 +03 01 09.5          18.0 R EG041G96
     K05G22M  C2005 04 06.36171 12 42 59.84 +03 02 16.2          18.1 R EG041G96
     K05G22M  C2005 04 06.36773 12 43 02.65 +03 03 22.5          18.5 R EG041G96
     K05G22M  C2005 04 06.37373 12 43 05.47 +03 04 28.0          18.1 R EG041G96
     K05G22M 5C2005 04 06.38530 12 43 11.54 +03 06 33.7                 EG041673
     K05G22M 5C2005 04 06.38669 12 43 12.18 +03 06 48.8                 EG041673
     K05G22M 5C2005 04 06.40660 12 43 21.53 +03 10 27.0                 EG041673
     K05G22M 5C2005 04 06.40799 12 43 22.21 +03 10 42.4                 EG041673
     K05G22M 1C2005 04 06.61216812 45 04.053+03 49 09.86         18.8 R EG041413
     K05G22M 1C2005 04 06.61597812 45 05.793+03 49 50.88         19.0 R EG041413

Observer details:
246 Klet Observatory-KLENOT.  Observer M. Tichy.  1.06-m KLENOT Telescope
    + CCD.
413 Siding Spring.  Observer R. H. McNaught.  1.0-m f/8 reflector + CCD.
651 Grasslands Observatory, Tucson.  Observer J. E. McGaha.  0.62-m f/5.1
    Newtonian reflector + CCD.
673 Table Mountain Observatory, Wrightwood.  Observer D. Mayes.  0.6-m
    reflector + CCD.
699 Lowell Observatory-LONEOS.  Observer B. A. Skiff.  0.59-m LONEOS Schmidt
    + CCD.
704 Lincoln Laboratory ETS, New Mexico.  Observers M. Blythe, F. Shelly,
    M. Bezpalko, R. Huber, L. Manguso, D. Torres, R. Kracke, M. McCleary,
    H. Stange, A. Milner.  Measurers J. Stuart, R. Sayer, J. Evans, J. Kommers.
    1.0-m f/2.15 reflector + CCD.
G96 Mt. Lemmon Survey.  Observer A. Grauer/R. Hill.  Measurers E. C. Beshore,
    C. M. Casey, E. J. Christensen, G. J. Garradd, R. E. Hill, S. M. Larson,
    R. H. McNaught.  1.5-m reflector + CCD.
I04 Mamalluca Observatory.  Observer C. Jacques.  0.30-m f/3.0
    Schmidt-Cassegrain + CCD.

Orbital elements:
2005 GM22
Epoch 2005 Mar. 31.0 TT = JDT 2453460.5                 MPC
M   6.28514              (2000.0)            P               Q
n   0.35525689     Peri.  336.59544     -0.98037706     -0.17682609
a   1.9744268      Node   194.08080     +0.18178501     -0.98192815
e   0.4573561      Incl.   20.98802     -0.07625634     -0.06745108
P   2.77           H   22.8           G   0.15
From 37 observations 2005 Apr. 4-6.

Ephemeris:
2005 GM22                a,e,i = 1.97, 0.46, 21                  q = 1.0714
Date    TT    R. A. (2000) Decl.     Delta      r     Elong.  Phase     V
2005 03 31    11 41.53   -18 57.7    0.0961   1.090   159.7    18.5    18.9
2005 04 05    12 31.34   -01 16.7    0.101    1.101   172.2     7.1    18.6
2005 04 10    13 10.21   +12 45.5    0.120    1.115   159.3    18.5    19.4
2005 04 15    13 39.05   +21 51.8    0.147    1.131   148.4    27.7    20.1
2005 04 20    14 00.16   +27 21.9    0.180    1.150   141.1    33.2    20.8
2005 04 25    14 15.69   +30 36.3    0.215    1.171   136.2    36.5    21.3
2005 04 30    14 27.27   +32 25.7    0.252    1.193   132.9    38.2    21.7

Timothy B. Spahr             (C) Copyright 2005 MPC           M.P.E.C. 2005-G41

Read MPEC 2005-G40 Read MPEC 2005-G42


Our Web policy. Index to the CBAT/MPC/ICQ pages.


Valid HTML 4.01!